Regional Weather Roundup
Issued by NWS

Home | Current Version | Previous Version | Graphics & Text | Print | Product List | Glossary On
Versions: 1 2 3 4 5 6 7 8 9 10 11 12 13 14 15 16 17 18 19 20 21 22 23 24 25 26 27 28 29 30 31 32 33 34 35 36 37 38 39 40 41 42 43 44 45 46 47 48 49 50
000
ASUS43 KLSX 271710
RWRMO

WEATHER SUMMARY FOR MISSOURI
NATIONAL WEATHER SERVICE SPRINGFIELD MO
1200 PM CDT TUE JUN 27 2017

NOTE: "FAIR" INDICATES FEW OR NO CLOUDS BELOW 12,000 FEET WITH NO
       SIGNIFICANT WEATHER AND/OR OBSTRUCTIONS TO VISIBILITY.
       CURRENT SKY AND/OR WEATHER CONDITIONS ARE NOT AVAILABLE FOR
       CHILLICOTHE AND FARMINGTON.

MOZ001>031-035>038-043-044-053-054-271800-
...NORTHERN AND WESTERN MISSOURI...

CITY           SKY/WX    TMP DP  RH WIND       PRES   REMARKS
KANSAS CTY INT MOSUNNY   73  61  65 SE13G21   30.08F
KANSAS C DTWN  SUNNY     77  61  57 SE13      30.07S
LEE`S SUMMIT   SUNNY     73  59  61 SE8G17    30.09S
ST JOSEPH      SUNNY     74  61  63 SE14G22   30.07F
CHILLICOTHE      N/A     75  59  57 SE9G16    30.10F
KIRKSVILLE     SUNNY     74  54  49 SE9       30.13F

$$
MOZ066>068-077>081-088>096-101>105-271800-
...SOUTHWEST MISSOURI...

CITY           SKY/WX    TMP DP  RH WIND       PRES   REMARKS
SPRINGFIELD    SUNNY     75  64  68 SE7       30.11F
JOPLIN         MOSUNNY   81  69  67 SW5       30.08F
BRANSON        PTSUNNY   75  63  64 SE7       30.13S

$$
MOZ032>034-039>042-045>050-055>058-069>072-271800-
...CENTRAL MISSOURI...

CITY           SKY/WX    TMP DP  RH WIND       PRES   REMARKS
COLUMBIA       SUNNY     74  57  55 SE9       30.13F
JEFFERSON CITY SUNNY     73  54  51 SE10      30.12F
SEDALIA        SUNNY     75  63  66 SE9       30.12F
WHITEMAN AFB   MOSUNNY   73  63  68 SE9       30.09
WARRENSBURG    SUNNY     73  57  56 E10G16    30.09F
OSAGE BEACH    MOSUNNY   74  59  59 SE5       30.13F

$$
MOZ051-052-059>065-271800-
...EAST CENTRAL MISSOURI...

CITY           SKY/WX    TMP DP  RH WIND       PRES   REMARKS
ST LOUIS INTL  MOSUNNY   78  54  43 SE5       30.15S
SPIRIT OF STL  MOSUNNY   75  55  49 VRB5      30.13F
ST CHARLES     MOSUNNY   75  55  49 SE7       30.14S

$$
MOZ072>076-082>087-097>100-106>115-271800-
...SOUTH CENTRAL AND SOUTHEAST MISSOURI...

CITY           SKY/WX    TMP DP  RH WIND       PRES   REMARKS
CAPE GIRARDEAU SUNNY     76  55  48 NE6       30.13F
FARMINGTON     SUNNY     75  54  47 VRB6      30.15F
POPLAR BLUFF   SUNNY     75  60  59 E3        30.12F
WEST PLAINS    SUNNY     75  61  61 S6        30.15F

$$




USA.gov is the U.S. government's official web portal to all federal, state and local government web resources and services.